NOAA 16 DEB

Satellite information

Favourite Embed

Satellite Type and Status

DEBRISIN ORBIT

Key statistics

Satellite NOAA 16 DEB at a glance.

Uptime

9055

Days in orbit

Revolutions

≈ 14.4

Per day

Orbit

SSO

Sun Synchronous Orbit

Inclination

98.8

Latest

Satellite identification and parameters

Extended collection of information and parameters for NOAA 16 DEB.

Object identification

Identified? True

Debris? True

Object name: NOAA 16 DEB

International designator: 2000-055X

Object number (NORAD): 41064

Object ID (CCSDS): 41064

Country: UNITED STATES OF AMERICA (US)

Current information (Y/N): Y

RCS size: SMALL

Orbital parameters

Period: 100.03 minutes

Inclination: 98.8411 deg

SMA: 7138.06 km

Apoapsis: 771.172 km

Periapsis: 748.678 km

RAAN: 306.9304 deg

Eccentricy: 0.0015757

Argument of periapsis: 169.5232 deg

Mean anomaly: 190.6286 deg

Mean motion: 14.39568947 rev/day

Mean motion (dot): 0.00005434 rev/day2

B* drag term: 0.0017518 1/REarth

Two-line elements (TLE)

Creation date: July 6, 2025, 6:05 p.m.

Reference frame: TEME

Reference center: EARTH

Epoch: July 6, 2025, 7:29 a.m. UTC

TLE line 0: 0 NOAA 16 DEB

TLE line 1: 1 41064U 00055X 25187.31201821 .00005434 00000-0 17518-2 0 9996

TLE line 2: 2 41064 98.8411 306.9304 0015757 169.5232 190.6286 14.39568947498117

Live tracking on map

Real-time ground track for satellite NOAA 16 DEB.

In-orbit conjunctions

A list of the most updated potential collisions computed for object NOAA 16 DEB.

Target Orbit TCA Probability of collision Miss distance Type
COSMOS 1867 COOLANT LEO 2025-05-01 00:46:47 0.0001204563 106.0 (m) DEBRIS
COSMOS 676 LEO 2025-01-22 18:37:21 0.000127793 850.0 (m) PAYLOAD
COSMOS 1275 DEB LEO 2024-09-28 12:58:09 0.0001994454 362.0 (m) DEBRIS

Associated space launch

The NOAA K, L and M POES satellites begin the fifth generation of improved environmental monitoring in support of NOAA missions. The instrument payload has significant improvements and additions/deletions. The instrument changes have effected the spacecraft subsystems and data formats.

NOAA 16 DEB was lifted into orbit during the mission ‘Titan II SLV | NOAA 16’, on board a Titan II SLV space rocket.

The launch took place on Sept. 21, 2000, 10:22 a.m. from Space Launch Complex 4W.

For more information about the launch, click the button.

Launch to space Titan II SLV | NOAA 16
Titan II SLV | NOAA 16

Agency: N/A

Status: Launch Successful

Launch date: Sept. 21, 2000, 10:22 a.m. UTC

Rocket: Titan II SLV

Launch pad: Space Launch Complex 4W

Location: Vandenberg SFB, CA, USA

...

Latest news about this satellite

There are no fresh news available about this satellite. Check back as we update our databases every day.


Newsletter sign-up

Weekly statistics, charts and insights to help you stay on top of the space industry.